Regional Weather Roundup
Issued by NWS

Home | Current Version | Previous Version | Text Only | Print | Product List | Glossary Off
Versions: 1 2 3 4 5 6 7 8 9 10 11 12 13 14 15 16 17 18 19 20 21 22 23 24 25 26 27 28 29 30 31 32 33 34 35 36 37 38 39 40 41 42 43 44 45 46 47 48 49 50

000
ASUS43 KDTX 201110
RWRMI
MICHIGAN HOURLY REGIONAL WEATHER ROUNDUP
NATIONAL WEATHER SERVICE DETROIT/PONTIAC MI
600 AM EST SAT DEC 20 2014

NOTE: "FAIR" INDICATES FEW OR NO CLOUDS BELOW 12,000 FEET WITH NO
SIGNIFICANT WEATHER AND/OR OBSTRUCTION TO VISIBILITY.

MIZ047>049-052>055-059>063-066>070-074>076-081>083-201200-
SOUTHEAST LOWER MICHIGAN

CITY           SKY/WX    TMP DP  RH WIND       PRES   REMARKS
ADRIAN         CLOUDY    29  21  72 S3        30.29R
ALMA           CLEAR     16  15  96 CALM      30.30R
ANN ARBOR      CLOUDY    27  22  81 E3        30.29R
BAD AXE        CLOUDY    17  16  96 CALM      30.30S
DETROIT CITY   CLOUDY    27  20  75 N3        30.31S
DETROIT        CLOUDY    26  21  81 CALM      30.31R
FLINT          MOCLDY    18  14  84 CALM      30.29S
GROSSE ILE     CLOUDY    28  23  80 CALM      30.29S
HILLSDALE      CLOUDY    27  23  83 CALM      30.25S
HOWELL         CLOUDY    23  21  93 CALM      30.28R

CITY           SKY/WX    TMP DP  RH WIND       PRES   REMARKS
JACKSON        CLOUDY    26  23  88 CALM      30.27R
LAMBERTVILLE   CLOUDY    32  23  69 CALM      30.29S
LANSING        CLEAR     18  15  88 CALM      30.29R
LAPEER         NOT AVBL
MASON          CLOUDY    24  22  91 CALM      30.28R
MONROE         CLOUDY    28  23  80 CALM      30.28S
MT. CLEMENS    CLOUDY    23  23  99 W3        30.29R
PONTIAC        CLOUDY    24  19  81 SW3       30.28R
PORT HOPE        N/A     27  20  75 CALM      30.29R
PORT HURON     PTCLDY    19  19 100 CALM      30.30S
TRI CITIES     CLEAR     20  16  84 SW5       30.31R
YPSILANTI      CLOUDY    29  22  75 CALM      30.30R
$$
MIZ043>046-050>051-056>058-064>065-071>073-077>080-201200-
SOUTHWEST LOWER MICHIGAN

CITY           SKY/WX    TMP DP  RH WIND       PRES   REMARKS
BATTLE CREEK   CLOUDY    25  21  85 CALM      30.27S
BENTON HARBOR  CLOUDY    27  24  89 CALM      30.27S
BIG RAPIDS     MOCLDY    16  15  97 CALM      30.27S
COLDWATER      CLOUDY    26  24  92 MISG      30.26F FOG
HOLLAND        PTCLDY    21  16  81 CALM      30.28S
GRAND RAPIDS   CLEAR     18  14  84 CALM      30.28S
KALAMAZOO      CLEAR     19  15  84 E3        30.27S FOG
MARSHALL       CLOUDY    23  21  94 CALM      30.27S
MUSKEGON       PTCLDY    19  15  84 NE3       30.28F
$$
MIZ016>042-201200-
NORTHERN LOWER MICHIGAN

CITY           SKY/WX    TMP DP  RH WIND       PRES   REMARKS
ALPENA         CLEAR     10   6  84 CALM      30.30S
BEAVER ISLAND  CLOUDY    23  22  98 CALM      30.28R
BELLAIRE       CLOUDY    25  22  88 CALM      30.30R
CADILLAC       CLOUDY    15  12  85 CALM      30.25R
CHARLEVOIX     CLOUDY    24  22  89 SE5       30.30S
FRANKFORT      CLOUDY    27  24  87 CALM      30.28R
GAYLORD        CLOUDY    17  15  92 CALM      30.24S
GRAYLING       CLOUDY    13  11  92 CALM      30.27R
HARBOR SPRINGS CLOUDY    14  12  89 NE5       30.28R
HOUGHTON LAKE  FOG        9   6  88 CALM      30.27R VSB 1/2
MANISTEE       CLOUDY    21  18  86 SE3       30.29R
OSCODA         PTCLDY     7   4  89 CALM      30.29R
PELLSTON       MOCLDY    -1  -5  82 CALM      30.30R
TRAVERSE CITY  CLOUDY    26  20  77 S3        30.28R
$$
MIZ007>008-015-201200-
EASTERN UPPER MICHIGAN

CITY           SKY/WX    TMP DP  RH WIND       PRES   REMARKS
KINROSS        CLOUDY     7   3  85 CALM      30.29R VSB 1/4
MACKINAC ISLAN CLOUDY    20  20  98 CALM      30.28R
NEWBERRY       CLOUDY    23  21  93 CALM      30.26R
S. S. MARIE    CLEAR      9   5  84 CALM      30.28F FOG
$$
MIZ004>006-011>014-085-201200-
CENTRAL UPPER MICHIGAN

CITY           SKY/WX    TMP DP  RH WIND       PRES   REMARKS
MANISTIQUE     MOCLDY    19  18  97 CALM      30.27S
ESCANABA       PTCLDY     9   3  78 CALM      30.26R
MENOMINEE      CLOUDY    16  10  79 CALM      30.27R
SAWYER-GWINN   MOCLDY     9   6  89 CALM      30.21S
$$
MIZ001>003-009>011-084-201200-
WESTERN UPPER MICHIGAN

CITY           SKY/WX    TMP DP  RH WIND       PRES   REMARKS
IRON MOUNTAIN  CLOUDY    15  11  83 CALM      30.21S
HOUGHTON       CLEAR     14  12  92 CALM      30.18S
COPPER HARBOR    N/A     26  21  81 SW7       30.21S
IRONWOOD       CLOUDY    25  21  86 S8        30.15S
$$

ABBREVIATIONS USED IN REMARKS
   TC - TEMPERATURE IN CELSIUS
  WCI - WIND CHILL INDEX
   HX - HEAT INDEX
  VSB - VISIBILITY




USA.gov is the U.S. government's official web portal to all federal, state and local government web resources and services.